Tracking 18844 objects as of 21-Nov-2017
HD Live streaming from Space Station
objects crossing your sky now

FENGYUN 1C DEB

Track FENGYUN 1C DEB now!
10-day predictions


NORAD ID: 30951
Int'l Code: 1999-025BAR
Perigee: 619.0 km
Apogee: 812.2 km
Inclination: 99.9 °
Period: 99.0 minutes
Semi major axis: 7086 km
RCS: 0.0121 m2 (small)
Launch date: May 10, 1999
Source: People's Republic of China (PRC)
Launch site: Taiyaun Space Center, China (TSC)

Note: This is SATELLITE DEBRIS
aabbcc
Your satellite tracking list
Your tracking list is empty




NASA's NSSDC Master Catalog

Two Line Element Set (TLE):
1 30951U 99025BAR 17325.05627405  .00002083  00000-0  43863-3 0  9990
2 30951  99.8739 270.4741 0136271  24.0387  36.0573 14.55276542565702
Source of the keplerian elements: AFSPC